Погода Закаталы

Погода Закаталы : погода сейчас, прогноз погоды и архив. Всё, что Вы хотите узнать о погоде Закаталы!

Поиск расширенной информации на нашем сайте:

Другие новости

Новости СМИ2

Главная страница сайта

Новости сайта

03.07.2017

Напоминаем, что на нашем специализированном сайте Метеоцентр.Азия вы можете получить высокодетализированные автоматические прогнозы погоды по пунктам России, СНГ и мира в авиационном формате (включающие направление и скорость ветра, видимость, явления погоды, количество и форму облачности, нижнюю и верхнюю границу облачности).


Погода Закаталы - сегодня

Время (UTC), дата Ветер
(°,м/с) 
Видим.   Явления Облачность Т
(°С)
Тd
(°С)
f(%) Тe
(°С)
Pmin
(гПа)
dP
(гПа)
Po
(мм)
O2
(г/м3)
Тmin Tmax R s Состояние
почвы
03 22.11.17 050 (СВ) 4000 м    10/10 600 м 
[Sc]
+8 +4.8 80 +8  1006  -0.6  711  277           
06 22.11.17 110 (В) 20000 м    9/9 1000 м средняя 
[Sc|Ac und]
+8.4 +4.3 75 +8  1008.3  2.8  713  278  +7.7         
09 22.11.17 020 (С) 4000 м  слаб. дождь  10/10 600 м 
[Cu med, cong]
+8.8 +5.5 80 +9  1008.3  0.1  713  277           
12 22.11.17 200 (Ю) 4000 м  слаб. дождь  10/10 600 м 
[Cu med, cong]
+7.9 +6.5 91 +8  1005.7  2.6  711  277           
15 22.11.17 110 (В) 4000 м  в посл. час дождь  10/10 600 м 
[Sc]
+7.6 +4.8 82 +8  1010.9  2.1  715  279           
18 22.11.17 020 (С) 2000 м  слаб. дождь  10/10 600 м 
[Cu med, cong]
+6.3 +3.7 83 +6  1014.2  2.4  717  282    +9.4     
21 22.11.17 050 (СВ) 4000 м    8/8 1000 м 
[Sc]
+5.6 +3.5 86 +5  1014.3  717  282           
00 23.11.17 020 (С) 4000 м    10/10 1000 м 
[Sc]
+5.5 +3.1 85 +5  1014.8  0.4  717  283           
03 23.11.17 180 (Ю) 20000 м    10/10 1000 м 
[Sc]
+4.6 +0.7 76 +4  1015.4  0.4  717  284           
06 23.11.17 160 (Ю) 10 км    10/10 1000 м 
[Sc]
+5.1 +2.7 84 +5  1016.2  718  284  +4.2       
09 23.11.17 140 (ЮВ) 10 км    9/9 1000 м средняя 
[Sc|Ac und]
+6.4 +2.2 74 +6  1016.9  0.8  719  283           
12 23.11.17 230 (ЮЗ) 20000 м    4/4 1500 м средняя 
[Cu med, cong|Ac und]
+8.7 -3.6 42 +9  1016.5  719  281           
15 23.11.17 050 (СВ) 20000 м    3/0 средняя 
[Ac und]
+5.3 -0.5 66 +5  1017.1  719  284           
21 23.11.17 020 (С) 4000 м    9/9 1000 м средняя 
[Sc|Ac und]
+2.9 -0.4 79 +2  1021.5  1.6  721  288           
00 24.11.17 050 (СВ) 20000 м    ясно 
+1.1 -2.4 77 1021.5  -0.3  721  290           
03 24.11.17 020 (С) 20000 м    ясно 
-0.2 -4 75 -1  1021.9  721  291           
06 24.11.17 070 (В) 20000 м    6/0 средняя 
[Ac und]
+4.2 -7.4 43 +4  1021.8  0.8  722  287  -0.7         
09 24.11.17 250 (З) 20000 м    3/3 1000 м средняя 
[Cu med, cong|Ac und]
+6.9 -5.9 40 +7  1021.1  722  284           
12 24.11.17 230 (ЮЗ) 20000 м    8/8 1000 м средняя 
[Sc|Ac und]
+7.9 -6 37 +8  1019.7  -1.1  721  283           
15 24.11.17 050 (СВ) 20000 м    9/9 1000 м 
[Sc]
+4.6 -5.9 46 +4  1021.3  0.7  721  286           
21 24.11.17 020 (С) 20000 м    ясно 
+2.7 -7.5 47 +2  1024.6  0.7  723  289           
00 25.11.17 050 (СВ) 20000 м    ясно 
+2.5 -7.9 46 +2  1024.6  723  290           
03 25.11.17 160 (Ю) 20000 м    ясно 
+2.8 -7.4 47 +2  1025.7  1.1  724  290           
06 25.11.17 290 (З) 20000 м    3/0 средняя 
[Ac und]
+2.7 -5.8 53 +2  1028.5  2.6  726  290  +1.7         
09 25.11.17 250 (З) 20000 м    4/4 1000 м средняя 
[Cu med, cong|Ac und]
+8 -5.7 37 +8  1028.2  0.9  727  285           
Время (UTC), дата Ветер
(°,м/с) 
Видим.   Явления Облачность Т
(°С)
Тd
(°С)
f(%) Тe
(°С)
Pmin
(гПа)
dP
(гПа)
Po
(мм)
O2
(г/м3)
Тmin Tmax R s Состояние
почвы

Для получения пояснительной информации подведите курсор к названию столбца.

ПОГОДА Закаталы - архив

Всё, что Вы хотите узнать о погоде Закаталы - удобно и подробно!

Выберите нужную дату (начиная с 1 января 2015* года) и нажмите кнопку "Найти".
Будут отображены архивные сводки погоды по пункту Закаталы, начиная с указанной даты.


Отображать данные в формате CSV (для использования в таблицах Excel)


Внимание! Наш архив погоды предназначен исключительно для личного некоммерческого использования в познавательных целях. Если Вам необходимы официальные справки о состоянии погоды (для производственных, юридических, коммерческих и т.п. целей), обращайтесь в органы Росгидромета.

*Примечание: данная дата относится к архиву по метеостанциям СССР (Россия, СНГ, Балтия).
Архив по метеостанциям Зарубежной Европы и Азии (кроме Китая) хранится 10 дней, по другим регионам земного шара (Китай, Африка, Америка, Австралия, Океания) - 1 день.

Закаталы - район местоположения метеостанции


Название, широта, долгота, высота метеостанции:
Закаталы 41.6°ш. 46.6°д. 490 м над ур. моря [Азербайджан]

Дополнительная информация

В oтличие oт бoльшинства пoгoдных сайтoв мы публикуем пoдрoбную метеoинфoрмацию в детальнoм прoфессиoнальнoм фoрмате.

Характеристики температуры и влажнoсти вoздуха измеряются на высoте 2 м в тени вдали oт зданий и деревьев.
Скoрoсть ветра измеряется на высoте 10 м (на урoвне рoста челoвека скoрoсть ветра ниже в 1.5-2 раза). Если метеoстанция нахoдится в гoрoде или в лесу, тo скoрoсть ветра занижена на 2-4 м/с пo сравнению с oткрытым местoм. Скoрoсть ветра над акватoриями крупных рек и oзёр, а также на вершинах хoлмoв на 2-5 м/с выше, чем в oбычных услoвиях.
Атмoсфернoе давление в разных тoчках местнoсти мoжет значительнo oтличаться oт давления на метеoстанции, в зависимoсти oт услoвий рельефа (при пoдъёме на 10 м давление пoнижается примернo на 1 мм рт.ст.).